| time (UTC) | temp C | wind direction | speed KPH | gust KPH | rain 1hr cm | rain 24hr cm | rain mn cm | humidity % | barometer mb |
| 20260510231754 | 18 | 224 | 0.0 | 0.0 | 0.00 | 0.28 | 0.28 | 97 | 1017.0 |
| 20260510231251 | 18 | 224 | 0.0 | 0.0 | 0.00 | 0.28 | 0.28 | 97 | 1016.8 |
| 20260510230747 | 18 | 224 | 0.0 | 0.0 | 0.00 | 0.28 | 0.28 | 96 | 1016.7 |
| 20260510230242 | 18 | 225 | 0.0 | 0.0 | 0.00 | 0.28 | 0.28 | 94 | 1016.9 |
| 20260510225740 | 18 | 190 | 1.6 | 4.8 | 0.00 | 0.28 | 0.28 | 94 | 1016.9 |
| 20260510225235 | 18 | 228 | 0.0 | 3.2 | 0.00 | 0.28 | 0.28 | 97 | 1016.9 |
| 20260510224731 | 18 | 234 | 1.6 | 3.2 | 0.00 | 0.28 | 0.28 | 98 | 1017.2 |
| 20260510224228 | 18 | 228 | 0.0 | 0.0 | 0.00 | 0.28 | 0.28 | 98 | 1017.2 |
| 20260510223726 | 18 | 229 | 0.0 | 0.0 | 0.00 | 0.28 | 0.28 | 98 | 1016.7 |
| 20260510223223 | 18 | 238 | 0.0 | 0.0 | 0.00 | 0.28 | 0.28 | 97 | 1016.8 |
| 20260510222720 | 19 | 238 | 0.0 | 0.0 | 0.00 | 0.28 | 0.28 | 97 | 1016.6 |
| 20260510222217 | 19 | 238 | 0.0 | 0.0 | 0.00 | 0.28 | 0.28 | 97 | 1016.7 |
| 20260510221712 | 18 | 115 | 0.0 | 0.0 | 0.00 | 0.28 | 0.28 | 95 | 1016.7 |
| 20260510221209 | 18 | 194 | 0.0 | 1.6 | 0.00 | 0.28 | 0.28 | 97 | 1016.7 |
| 20260510220705 | 18 | 224 | 1.6 | 3.2 | 0.00 | 0.28 | 0.28 | 97 | 1016.8 |
| 20260510220200 | 18 | 205 | 0.0 | 1.6 | 0.00 | 0.28 | 0.28 | 97 | 1016.7 |
| 20260510215658 | 18 | 198 | 0.0 | 1.6 | 0.00 | 0.28 | 0.28 | 97 | 1016.6 |
| 20260510215156 | 18 | 196 | 0.0 | 1.6 | 0.00 | 0.28 | 0.28 | 97 | 1016.5 |
| 20260510214652 | 18 | 131 | 0.0 | 1.6 | 0.00 | 0.28 | 0.28 | 97 | 1016.3 |
| 20260510214149 | 18 | 231 | 0.0 | 1.6 | 0.00 | 0.28 | 0.28 | 98 | 1016.2 |
| 20260510213646 | 18 | 228 | 1.6 | 3.2 | 0.00 | 0.28 | 0.28 | 98 | 1016.3 |
| 20260510213143 | 18 | 234 | 1.6 | 3.2 | 0.13 | 0.28 | 0.28 | 98 | 1016.4 |
| 20260510212638 | 18 | 243 | 3.2 | 3.2 | 0.43 | 0.28 | 0.28 | 99 | 1016.4 |
| 20260510212136 | 18 | 226 | 0.0 | 3.2 | 0.30 | 0.25 | 0.25 | 98 | 1016.5 |
| 20260510211633 | 18 | 230 | 0.0 | 0.0 | 0.00 | 0.20 | 0.20 | 97 | 1016.3 |
| 20260510211132 | 18 | 231 | 1.6 | 1.6 | 0.00 | 0.20 | 0.20 | 97 | 1015.9 |
| 20260510210629 | 19 | 231 | 0.0 | 0.0 | 0.00 | 0.20 | 0.20 | 96 | 1016.2 |
| 20260510210125 | 19 | 231 | 1.6 | 1.6 | 0.00 | 0.20 | 0.20 | 96 | 1016.0 |
| 20260510205623 | 19 | 232 | 1.6 | 1.6 | 0.00 | 0.20 | 0.20 | 95 | 1016.0 |
| 20260510205120 | 19 | 230 | 0.0 | 0.0 | 0.00 | 0.20 | 0.20 | 96 | 1016.0 |
| 20260510204616 | 18 | 245 | 0.0 | 1.6 | 0.18 | 0.20 | 0.20 | 96 | 1016.1 |
| 20260510204113 | 18 | 218 | 1.6 | 3.2 | 0.18 | 0.20 | 0.20 | 96 | 1016.1 |
| 20260510203610 | 19 | 225 | 1.6 | 1.6 | 0.00 | 0.18 | 0.18 | 95 | 1016.1 |
| 20260510203107 | 19 | 64 | 0.0 | 0.0 | 0.00 | 0.18 | 0.18 | 94 | 1016.1 |
| 20260510202606 | 19 | 233 | 0.0 | 1.6 | 0.00 | 0.18 | 0.18 | 93 | 1016.0 |
| 20260510202056 | 20 | 234 | 0.0 | 0.0 | 0.00 | 0.18 | 0.18 | 92 | 1016.1 |
| 20260510201554 | 20 | 234 | 0.0 | 1.6 | 0.00 | 0.18 | 0.18 | 90 | 1016.0 |
| 20260510201050 | 21 | 234 | 1.6 | 1.6 | 0.00 | 0.18 | 0.18 | 89 | 1016.1 |
| 20260510200546 | 20 | 257 | 1.6 | 1.6 | 0.00 | 0.18 | 0.18 | 93 | 1016.1 |
| 20260510200044 | 19 | 348 | 1.6 | 1.6 | 0.79 | 0.18 | 0.18 | 92 | 1016.2 |
| 20260510195542 | 19 | 192 | 0.0 | 1.6 | 1.07 | 0.18 | 0.18 | 91 | 1016.2 |
| 20260510195037 | 21 | 98 | 0.0 | 0.0 | 0.18 | 0.03 | 0.03 | 81 | 1016.1 |
| 20260510194533 | 22 | 356 | 0.0 | 1.6 | 0.00 | 0.00 | 0.00 | 65 | 1016.0 |
| 20260510194029 | 23 | 16 | 1.6 | 3.2 | 0.00 | 0.00 | 0.00 | 63 | 1015.9 |
| 20260510193524 | 24 | 65 | 3.2 | 4.8 | 0.00 | 0.00 | 0.00 | 55 | 1015.9 |
| 20260510193020 | 25 | 324 | 1.6 | 4.8 | 0.00 | 0.00 | 0.00 | 54 | 1015.7 |
| 20260510192510 | 25 | 187 | 6.4 | 14.5 | 0.00 | 0.00 | 0.00 | 51 | 1015.8 |
| 20260510192007 | 24 | 80 | 3.2 | 6.4 | 0.00 | 0.00 | 0.00 | 53 | 1016.0 |
| 20260510191503 | 24 | 49 | 0.0 | 9.7 | 0.00 | 0.00 | 0.00 | 52 | 1015.9 |
| 20260510190959 | 25 | 251 | 0.0 | 6.4 | 0.00 | 0.00 | 0.00 | 59 | 1015.9 |
| 20260510190456 | 25 | 88 | 1.6 | 12.9 | 0.00 | 0.00 | 0.00 | 51 | 1016.1 |
| 20260510185953 | 25 | 257 | 1.6 | 3.2 | 0.00 | 0.00 | 0.00 | 51 | 1016.1 |
| 20260510185451 | 24 | 39 | 4.8 | 6.4 | 0.00 | 0.00 | 0.00 | 54 | 1016.2 |
| 20260510184948 | 24 | 91 | 1.6 | 4.8 | 0.00 | 0.00 | 0.00 | 53 | 1016.1 |
| 20260510184445 | 23 | 115 | 0.0 | 3.2 | 0.00 | 0.00 | 0.00 | 52 | 1016.1 |
| 20260510183944 | 23 | 54 | 3.2 | 6.4 | 0.00 | 0.00 | 0.00 | 55 | 1016.1 |
| 20260510183441 | 25 | 72 | 1.6 | 1.6 | 0.00 | 0.00 | 0.00 | 54 | 1015.9 |
| 20260510182941 | 25 | 76 | 0.0 | 11.3 | 0.00 | 0.00 | 0.00 | 51 | 1016.0 |
| 20260510182437 | 24 | 64 | 6.4 | 11.3 | 0.00 | 0.00 | 0.00 | 50 | 1015.9 |
| 20260510181933 | 24 | 92 | 1.6 | 9.7 | 0.00 | 0.00 | 0.00 | 53 | 1015.9 |
| 20260510181432 | 25 | 208 | 1.6 | 6.4 | 0.00 | 0.00 | 0.00 | 53 | 1015.9 |
| 20260510180927 | 25 | 79 | 3.2 | 6.4 | 0.00 | 0.00 | 0.00 | 52 | 1015.7 |
| 20260510175441 | 25 | 110 | 8.0 | 17.7 | 0.00 | 0.00 | 0.00 | 51 | 1015.9 |
| 20260510174936 | 25 | 110 | 8.0 | 17.7 | 0.00 | 0.00 | 0.00 | 51 | 1015.9 |
| 20260510174435 | 24 | 22 | 3.2 | 9.7 | 0.00 | 0.00 | 0.00 | 51 | 1015.9 |
| 20260510173931 | 24 | 38 | 6.4 | 6.4 | 0.00 | 0.00 | 0.00 | 52 | 1015.9 |
| 20260510173427 | 25 | 64 | 0.0 | 3.2 | 0.00 | 0.00 | 0.00 | 52 | 1015.8 |
| 20260510172924 | 24 | 71 | 1.6 | 3.2 | 0.00 | 0.00 | 0.00 | 52 | 1015.8 |
| 20260510172420 | 23 | 352 | 0.0 | 1.6 | 0.00 | 0.00 | 0.00 | 59 | 1016.0 |
| 20260510171916 | 21 | 87 | 0.0 | 1.6 | 0.00 | 0.00 | 0.00 | 67 | 1016.1 |
| 20260510171413 | 21 | 237 | 0.0 | 1.6 | 0.00 | 0.00 | 0.00 | 69 | 1016.4 |
| 20260510170910 | 21 | 71 | 1.6 | 1.6 | 0.00 | 0.00 | 0.00 | 64 | 1016.0 |
| 20260510170407 | 22 | 73 | 1.6 | 1.6 | 0.00 | 0.00 | 0.00 | 62 | 1016.1 |
| 20260510165901 | 22 | 50 | 4.8 | 4.8 | 0.00 | 0.00 | 0.00 | 54 | 1015.9 |
| 20260510165358 | 23 | 98 | 11.3 | 14.5 | 0.00 | 0.00 | 0.00 | 52 | 1016.2 |
| 20260510164855 | 23 | 82 | 1.6 | 6.4 | 0.00 | 0.00 | 0.00 | 52 | 1016.0 |
| 20260510164353 | 24 | 73 | 3.2 | 9.7 | 0.00 | 0.00 | 0.00 | 55 | 1016.0 |
| 20260510163852 | 24 | 143 | 1.6 | 11.3 | 0.00 | 0.00 | 0.00 | 50 | 1015.8 |
| 20260510163350 | 25 | 43 | 3.2 | 4.8 | 0.00 | 0.00 | 0.00 | 49 | 1015.8 |
| 20260510162849 | 24 | 217 | 1.6 | 6.4 | 0.00 | 0.00 | 0.00 | 50 | 1015.8 |
| 20260510162347 | 24 | 82 | 3.2 | 4.8 | 0.00 | 0.00 | 0.00 | 50 | 1016.0 |
| 20260510161842 | 24 | 48 | 1.6 | 4.8 | 0.00 | 0.00 | 0.00 | 51 | 1016.0 |
| 20260510161339 | 24 | 96 | 3.2 | 4.8 | 0.00 | 0.00 | 0.00 | 49 | 1016.0 |
| 20260510160836 | 23 | 71 | 1.6 | 4.8 | 0.00 | 0.00 | 0.00 | 54 | 1016.0 |
| 20260510160333 | 24 | 104 | 6.4 | 9.7 | 0.00 | 0.00 | 0.00 | 53 | 1015.9 |
| 20260510155832 | 23 | 216 | 6.4 | 11.3 | 0.00 | 0.00 | 0.00 | 51 | 1016.0 |
| 20260510155329 | 23 | 189 | 3.2 | 4.8 | 0.00 | 0.00 | 0.00 | 54 | 1016.0 |
| 20260510154825 | 23 | 76 | 4.8 | 12.9 | 0.00 | 0.00 | 0.00 | 52 | 1016.1 |
| 20260510154321 | 23 | 40 | 3.2 | 4.8 | 0.00 | 0.00 | 0.00 | 53 | 1016.0 |
| 20260510153815 | 23 | 80 | 1.6 | 9.7 | 0.00 | 0.00 | 0.00 | 54 | 1016.1 |
| 20260510153312 | 23 | 93 | 8.0 | 20.9 | 0.00 | 0.00 | 0.00 | 54 | 1016.2 |
| 20260510152809 | 23 | 201 | 3.2 | 12.9 | 0.00 | 0.00 | 0.00 | 53 | 1016.0 |
| 20260510152307 | 23 | 97 | 9.7 | 12.9 | 0.00 | 0.00 | 0.00 | 53 | 1015.9 |
| 20260510151802 | 23 | 89 | 4.8 | 9.7 | 0.00 | 0.00 | 0.00 | 55 | 1015.8 |
| 20260510151300 | 23 | 116 | 6.4 | 9.7 | 0.00 | 0.00 | 0.00 | 56 | 1015.8 |
| 20260510150755 | 22 | 181 | 1.6 | 9.7 | 0.00 | 0.00 | 0.00 | 57 | 1016.0 |
| 20260510150251 | 22 | 186 | 1.6 | 16.1 | 0.00 | 0.00 | 0.00 | 58 | 1015.9 |
| 20260510145747 | 22 | 117 | 3.2 | 9.7 | 0.00 | 0.00 | 0.00 | 57 | 1016.1 |
| 20260510145245 | 22 | 358 | 1.6 | 9.7 | 0.00 | 0.00 | 0.00 | 57 | 1016.1 |
| 20260510144740 | 22 | 163 | 3.2 | 4.8 | 0.00 | 0.00 | 0.00 | 60 | 1016.4 |
| 20260510144238 | 22 | 126 | 3.2 | 6.4 | 0.00 | 0.00 | 0.00 | 59 | 1016.2 |
| 20260510143731 | 22 | 209 | 3.2 | 4.8 | 0.00 | 0.00 | 0.00 | 64 | 1016.2 |
| 20260510143228 | 21 | 192 | 1.6 | 6.4 | 0.00 | 0.00 | 0.00 | 61 | 1016.0 |
| 20260510142719 | 21 | 206 | 3.2 | 9.7 | 0.00 | 0.00 | 0.00 | 65 | 1016.2 |
| 20260510142216 | 20 | 94 | 3.2 | 9.7 | 0.00 | 0.00 | 0.00 | 65 | 1016.1 |
| 20260510141713 | 20 | 89 | 9.7 | 11.3 | 0.00 | 0.00 | 0.00 | 68 | 1016.4 |
| 20260510141211 | 20 | 105 | 0.0 | 9.7 | 0.00 | 0.00 | 0.00 | 69 | 1016.2 |
| 20260510140707 | 20 | 106 | 8.0 | 12.9 | 0.00 | 0.00 | 0.00 | 69 | 1016.4 |
| 20260510140207 | 18 | 99 | 1.6 | 3.2 | 0.00 | 0.00 | 0.00 | 74 | 1016.4 |
| 20260510135702 | 18 | 93 | 3.2 | 3.2 | 0.00 | 0.00 | 0.00 | 78 | 1016.4 |
| 20260510135158 | 18 | 131 | 1.6 | 6.4 | 0.00 | 0.00 | 0.00 | 78 | 1016.3 |
| 20260510134655 | 18 | 90 | 1.6 | 1.6 | 0.00 | 0.00 | 0.00 | 77 | 1016.4 |
| 20260510134153 | 18 | 123 | 3.2 | 3.2 | 0.00 | 0.00 | 0.00 | 78 | 1016.3 |
| 20260510133649 | 18 | 91 | 1.6 | 3.2 | 0.00 | 0.00 | 0.00 | 79 | 1016.2 |
| 20260510133144 | 18 | 87 | 4.8 | 6.4 | 0.00 | 0.00 | 0.00 | 76 | 1016.3 |
| 20260510132641 | 18 | 79 | 1.6 | 4.8 | 0.00 | 0.00 | 0.00 | 76 | 1016.1 |
| 20260510132138 | 17 | 150 | 0.0 | 1.6 | 0.00 | 0.00 | 0.00 | 80 | 1016.2 |
| 20260510131635 | 17 | 107 | 1.6 | 3.2 | 0.00 | 0.00 | 0.00 | 77 | 1015.9 |
| 20260510131133 | 17 | 97 | 4.8 | 6.4 | 0.00 | 0.00 | 0.00 | 78 | 1015.9 |
| 20260510130629 | 16 | 88 | 3.2 | 4.8 | 0.00 | 0.00 | 0.00 | 85 | 1015.9 |
| 20260510130127 | 15 | 107 | 3.2 | 4.8 | 0.00 | 0.00 | 0.00 | 84 | 1016.0 |
| 20260510125623 | 14 | 117 | 1.6 | 3.2 | 0.00 | 0.00 | 0.00 | 90 | 1016.0 |
| 20260510125119 | 13 | 89 | 0.0 | 4.8 | 0.00 | 0.00 | 0.00 | 99 | 1016.0 |
| 20260510124616 | 12 | 97 | 3.2 | 4.8 | 0.00 | 0.00 | 0.00 | 99 | 1016.0 |
| 20260510124113 | 12 | 161 | 0.0 | 0.0 | 0.00 | 0.00 | 0.00 | 99 | 1016.1 |
| 20260510123608 | 11 | 162 | 0.0 | 0.0 | 0.00 | 0.00 | 0.00 | 99 | 1016.4 |
| 20260510123105 | 11 | 191 | 0.0 | 0.0 | 0.00 | 0.00 | 0.00 | 99 | 1016.0 |
| 20260510122601 | 11 | 191 | 0.0 | 0.0 | 0.00 | 0.00 | 0.00 | 99 | 1016.1 |
| 20260510122057 | 11 | 191 | 0.0 | 0.0 | 0.00 | 0.00 | 0.00 | 99 | 1016.0 |
| 20260510121554 | 10 | 191 | 0.0 | 0.0 | 0.00 | 0.00 | 0.00 | 99 | 1016.0 |
| 20260510121051 | 9 | 191 | 0.0 | 0.0 | 0.00 | 0.00 | 0.00 | 99 | 1016.0 |
| 20260510120550 | 8 | 191 | 0.0 | 0.0 | 0.00 | 0.00 | 0.00 | 99 | 1015.9 |
| 20260510120049 | 8 | 191 | 0.0 | 0.0 | 0.00 | 0.00 | 0.00 | 99 | 1015.9 |
| 20260510115547 | 8 | 191 | 0.0 | 0.0 | 0.00 | 0.00 | 0.00 | 99 | 1015.8 |
| 20260510115044 | 8 | 191 | 0.0 | 0.0 | 0.00 | 0.00 | 0.00 | 99 | 1015.9 |
| 20260510114540 | 8 | 191 | 0.0 | 0.0 | 0.00 | 0.00 | 0.00 | 99 | 1015.8 |
| 20260510114036 | 7 | 191 | 0.0 | 0.0 | 0.00 | 0.00 | 0.00 | 99 | 1015.7 |
| 20260510113531 | 7 | 191 | 0.0 | 0.0 | 0.00 | 0.00 | 0.00 | 99 | 1015.6 |
| 20260510113029 | 7 | 191 | 0.0 | 0.0 | 0.00 | 0.00 | 0.00 | 99 | 1015.6 |
| 20260510112525 | 7 | 191 | 0.0 | 0.0 | 0.00 | 0.00 | 0.00 | 99 | 1015.4 |
| 20260510112022 | 7 | 191 | 0.0 | 0.0 | 0.00 | 0.00 | 0.00 | 99 | 1015.4 |
| 20260510111519 | 7 | 191 | 0.0 | 0.0 | 0.00 | 0.00 | 0.00 | 99 | 1015.1 |
| 20260510111015 | 7 | 191 | 0.0 | 0.0 | 0.00 | 0.00 | 0.00 | 99 | 1015.0 |
| 20260510110511 | 7 | 191 | 0.0 | 0.0 | 0.00 | 0.00 | 0.00 | 99 | 1014.9 |
| 20260510110007 | 7 | 191 | 0.0 | 0.0 | 0.00 | 0.00 | 0.00 | 99 | 1015.0 |
| 20260510105502 | 7 | 191 | 0.0 | 0.0 | 0.00 | 0.00 | 0.00 | 99 | 1014.9 |
| 20260510104958 | 7 | 191 | 0.0 | 0.0 | 0.00 | 0.00 | 0.00 | 99 | 1014.9 |
| 20260510104454 | 7 | 191 | 0.0 | 0.0 | 0.00 | 0.00 | 0.00 | 99 | 1014.8 |
| 20260510103951 | 7 | 191 | 0.0 | 0.0 | 0.00 | 0.00 | 0.00 | 99 | 1014.9 |
| 20260510103448 | 7 | 191 | 0.0 | 0.0 | 0.00 | 0.00 | 0.00 | 99 | 1014.7 |
| 20260510102943 | 7 | 191 | 0.0 | 0.0 | 0.00 | 0.00 | 0.00 | 99 | 1014.7 |
| 20260510102440 | 7 | 191 | 0.0 | 0.0 | 0.00 | 0.00 | 0.00 | 99 | 1014.7 |
| 20260510101936 | 7 | 191 | 0.0 | 0.0 | 0.00 | 0.00 | 0.00 | 99 | 1014.7 |
| 20260510101434 | 7 | 191 | 0.0 | 0.0 | 0.00 | 0.00 | 0.00 | 99 | 1014.6 |
| 20260510100932 | 7 | 191 | 0.0 | 0.0 | 0.00 | 0.00 | 0.00 | 99 | 1014.5 |
| 20260510100428 | 7 | 191 | 0.0 | 0.0 | 0.00 | 0.00 | 0.00 | 99 | 1014.4 |
| 20260510095924 | 7 | 191 | 0.0 | 0.0 | 0.00 | 0.00 | 0.00 | 99 | 1014.4 |
| 20260510095420 | 7 | 191 | 0.0 | 0.0 | 0.00 | 0.00 | 0.00 | 99 | 1014.2 |
| 20260510094919 | 7 | 191 | 0.0 | 0.0 | 0.00 | 0.00 | 0.00 | 99 | 1014.1 |
| 20260510094414 | 7 | 191 | 0.0 | 0.0 | 0.00 | 0.00 | 0.00 | 99 | 1014.2 |
| 20260510093911 | 7 | 191 | 0.0 | 0.0 | 0.00 | 0.00 | 0.00 | 99 | 1014.1 |
| 20260510093406 | 7 | 191 | 0.0 | 0.0 | 0.00 | 0.00 | 0.00 | 99 | 1014.0 |
| 20260510092904 | 7 | 191 | 0.0 | 0.0 | 0.00 | 0.00 | 0.00 | 99 | 1013.9 |
| 20260510092401 | 7 | 191 | 0.0 | 0.0 | 0.00 | 0.00 | 0.00 | 99 | 1014.0 |
| 20260510091901 | 7 | 191 | 0.0 | 0.0 | 0.00 | 0.00 | 0.00 | 99 | 1013.9 |
| 20260510091358 | 7 | 191 | 0.0 | 0.0 | 0.00 | 0.00 | 0.00 | 99 | 1014.1 |
| 20260510090855 | 7 | 191 | 0.0 | 0.0 | 0.00 | 0.00 | 0.00 | 99 | 1013.8 |
| 20260510090351 | 7 | 191 | 0.0 | 0.0 | 0.00 | 0.00 | 0.00 | 99 | 1013.8 |
| 20260510085847 | 7 | 191 | 0.0 | 0.0 | 0.00 | 0.00 | 0.00 | 99 | 1013.8 |
| 20260510085342 | 7 | 191 | 0.0 | 0.0 | 0.00 | 0.00 | 0.00 | 99 | 1013.7 |
| 20260510084838 | 7 | 191 | 0.0 | 0.0 | 0.00 | 0.00 | 0.00 | 99 | 1013.8 |
| 20260510084335 | 7 | 191 | 0.0 | 0.0 | 0.00 | 0.00 | 0.00 | 99 | 1013.8 |
| 20260510083832 | 7 | 191 | 0.0 | 0.0 | 0.00 | 0.00 | 0.00 | 99 | 1013.6 |
| 20260510083328 | 7 | 191 | 0.0 | 0.0 | 0.00 | 0.00 | 0.00 | 99 | 1013.7 |
| 20260510082824 | 7 | 191 | 0.0 | 0.0 | 0.00 | 0.00 | 0.00 | 99 | 1013.5 |
| 20260510082322 | 8 | 191 | 0.0 | 0.0 | 0.00 | 0.00 | 0.00 | 99 | 1013.5 |
| 20260510081820 | 8 | 191 | 0.0 | 0.0 | 0.00 | 0.00 | 0.00 | 99 | 1013.4 |
| 20260510081316 | 8 | 191 | 0.0 | 0.0 | 0.00 | 0.00 | 0.00 | 99 | 1013.4 |
| 20260510080812 | 8 | 191 | 0.0 | 0.0 | 0.00 | 0.00 | 0.00 | 99 | 1013.3 |
| 20260510080307 | 8 | 191 | 0.0 | 0.0 | 0.00 | 0.00 | 0.00 | 99 | 1013.5 |
| 20260510075805 | 8 | 191 | 0.0 | 0.0 | 0.00 | 0.00 | 0.00 | 99 | 1013.4 |
| 20260510075305 | 8 | 191 | 0.0 | 0.0 | 0.00 | 0.00 | 0.00 | 99 | 1013.6 |
| 20260510074759 | 8 | 191 | 0.0 | 0.0 | 0.00 | 0.00 | 0.00 | 99 | 1013.2 |
| 20260510074255 | 8 | 191 | 0.0 | 0.0 | 0.00 | 0.00 | 0.00 | 99 | 1013.3 |
| 20260510073752 | 8 | 191 | 0.0 | 0.0 | 0.00 | 0.00 | 0.00 | 99 | 1013.3 |
| 20260510073248 | 8 | 191 | 0.0 | 0.0 | 0.00 | 0.00 | 0.00 | 99 | 1013.3 |
| 20260510072743 | 7 | 191 | 0.0 | 0.0 | 0.00 | 0.00 | 0.00 | 99 | 1013.4 |
| 20260510072240 | 8 | 191 | 0.0 | 0.0 | 0.00 | 0.00 | 0.00 | 99 | 1013.3 |
| 20260510071737 | 8 | 191 | 0.0 | 0.0 | 0.00 | 0.00 | 0.00 | 99 | 1013.5 |
| 20260510071233 | 8 | 191 | 0.0 | 0.0 | 0.00 | 0.00 | 0.00 | 99 | 1013.4 |
| 20260510070732 | 8 | 191 | 0.0 | 0.0 | 0.00 | 0.00 | 0.00 | 99 | 1013.5 |
| 20260510070229 | 7 | 191 | 0.0 | 0.0 | 0.00 | 0.00 | 0.00 | 99 | 1013.3 |
| 20260510065723 | 8 | 191 | 0.0 | 0.0 | 0.00 | 0.00 | 0.00 | 99 | 1013.4 |
| 20260510065220 | 8 | 191 | 0.0 | 0.0 | 0.00 | 0.00 | 0.00 | 99 | 1013.4 |
| 20260510064717 | 8 | 191 | 0.0 | 0.0 | 0.00 | 0.00 | 0.00 | 99 | 1013.4 |
| 20260510064215 | 8 | 191 | 0.0 | 0.0 | 0.00 | 0.00 | 0.00 | 99 | 1013.4 |
| 20260510063711 | 8 | 191 | 0.0 | 0.0 | 0.00 | 0.00 | 0.00 | 99 | 1013.3 |
| 20260510063207 | 8 | 191 | 0.0 | 0.0 | 0.00 | 0.00 | 0.00 | 99 | 1013.2 |
| 20260510062704 | 8 | 191 | 0.0 | 0.0 | 0.00 | 0.00 | 0.00 | 99 | 1013.5 |
| 20260510062200 | 8 | 191 | 0.0 | 0.0 | 0.00 | 0.00 | 0.00 | 99 | 1013.4 |
| 20260510061655 | 8 | 191 | 0.0 | 0.0 | 0.00 | 0.00 | 0.00 | 99 | 1013.4 |
| 20260510061153 | 8 | 191 | 0.0 | 0.0 | 0.00 | 0.00 | 0.00 | 99 | 1013.4 |
| 20260510060649 | 8 | 191 | 0.0 | 0.0 | 0.00 | 0.00 | 0.00 | 99 | 1013.5 |
| 20260510060145 | 8 | 191 | 0.0 | 0.0 | 0.00 | 0.00 | 0.00 | 99 | 1013.4 |
| 20260510055642 | 8 | 191 | 0.0 | 0.0 | 0.00 | 0.00 | 0.00 | 99 | 1013.4 |
| 20260510055140 | 8 | 191 | 0.0 | 0.0 | 0.00 | 0.00 | 0.00 | 99 | 1013.5 |
| 20260510054635 | 8 | 191 | 0.0 | 0.0 | 0.00 | 0.00 | 0.00 | 99 | 1013.4 |
| 20260510054131 | 8 | 191 | 0.0 | 0.0 | 0.00 | 0.00 | 0.00 | 99 | 1013.5 |
| 20260510053630 | 8 | 191 | 0.0 | 0.0 | 0.00 | 0.00 | 0.00 | 99 | 1013.6 |
| 20260510053127 | 8 | 191 | 0.0 | 0.0 | 0.00 | 0.00 | 0.00 | 99 | 1013.6 |
| 20260510052623 | 9 | 191 | 0.0 | 0.0 | 0.00 | 0.00 | 0.00 | 99 | 1013.5 |
| 20260510052120 | 9 | 191 | 0.0 | 0.0 | 0.00 | 0.00 | 0.00 | 99 | 1013.5 |
| 20260510051615 | 9 | 191 | 0.0 | 0.0 | 0.00 | 0.00 | 0.00 | 99 | 1013.6 |
| 20260510051112 | 9 | 191 | 0.0 | 0.0 | 0.00 | 0.00 | 0.00 | 99 | 1013.7 |
| 20260510050609 | 9 | 191 | 0.0 | 0.0 | 0.00 | 0.00 | 0.00 | 99 | 1013.7 |
| 20260510050106 | 9 | 191 | 0.0 | 0.0 | 0.00 | 0.00 | 0.00 | 99 | 1013.6 |
| 20260510045603 | 9 | 191 | 0.0 | 0.0 | 0.00 | 0.00 | 0.00 | 99 | 1013.7 |
| 20260510045059 | 9 | 191 | 0.0 | 0.0 | 0.00 | 0.00 | 0.00 | 99 | 1013.7 |
| 20260510044556 | 9 | 191 | 0.0 | 0.0 | 0.00 | 0.00 | 0.00 | 99 | 1013.9 |
| 20260510044054 | 9 | 191 | 0.0 | 0.0 | 0.00 | 0.00 | 0.00 | 99 | 1013.8 |
| 20260510043549 | 9 | 191 | 0.0 | 0.0 | 0.00 | 0.00 | 0.00 | 99 | 1013.8 |
| 20260510043045 | 9 | 191 | 0.0 | 0.0 | 0.00 | 0.00 | 0.00 | 99 | 1013.8 |
| 20260510042544 | 9 | 191 | 0.0 | 0.0 | 0.00 | 0.00 | 0.00 | 99 | 1013.9 |
| 20260510042040 | 9 | 191 | 0.0 | 0.0 | 0.00 | 0.00 | 0.00 | 99 | 1014.0 |
| 20260510041537 | 9 | 191 | 0.0 | 0.0 | 0.00 | 0.00 | 0.00 | 99 | 1013.9 |
| 20260510041034 | 9 | 191 | 0.0 | 0.0 | 0.00 | 0.00 | 0.00 | 99 | 1013.8 |
| 20260510040531 | 9 | 191 | 0.0 | 0.0 | 0.00 | 0.00 | 0.00 | 99 | 1014.0 |
| 20260510040027 | 10 | 191 | 0.0 | 0.0 | 0.00 | 0.00 | 0.00 | 99 | 1013.7 |
| 20260510035524 | 10 | 191 | 0.0 | 0.0 | 0.00 | 0.00 | 0.00 | 99 | 1013.8 |
| 20260510035023 | 10 | 191 | 0.0 | 0.0 | 0.00 | 0.00 | 0.00 | 99 | 1013.8 |
| 20260510034522 | 10 | 191 | 0.0 | 0.0 | 0.00 | 0.00 | 0.00 | 99 | 1013.9 |
| 20260510034018 | 10 | 191 | 0.0 | 0.0 | 0.00 | 0.00 | 0.00 | 99 | 1013.7 |
| 20260510033514 | 10 | 191 | 0.0 | 0.0 | 0.00 | 0.00 | 0.00 | 99 | 1013.9 |
| 20260510033012 | 10 | 191 | 0.0 | 0.0 | 0.00 | 0.00 | 0.00 | 99 | 1013.7 |
| 20260510032508 | 10 | 191 | 0.0 | 0.0 | 0.00 | 0.00 | 0.00 | 99 | 1013.6 |
| 20260510032008 | 10 | 191 | 0.0 | 0.0 | 0.00 | 0.00 | 0.00 | 99 | 1013.6 |
| 20260510031504 | 10 | 191 | 0.0 | 0.0 | 0.00 | 0.00 | 0.00 | 99 | 1013.6 |
| 20260510031000 | 10 | 191 | 0.0 | 0.0 | 0.00 | 0.00 | 0.00 | 99 | 1013.6 |
| 20260510030455 | 10 | 191 | 0.0 | 0.0 | 0.00 | 0.00 | 0.00 | 99 | 1013.7 |
| 20260510025953 | 10 | 191 | 0.0 | 0.0 | 0.00 | 0.00 | 0.00 | 99 | 1013.7 |
| 20260510025450 | 10 | 191 | 0.0 | 0.0 | 0.00 | 0.00 | 0.00 | 99 | 1013.7 |
| 20260510024948 | 10 | 191 | 0.0 | 0.0 | 0.00 | 0.00 | 0.00 | 99 | 1013.7 |
| 20260510024444 | 10 | 191 | 0.0 | 0.0 | 0.00 | 0.00 | 0.00 | 99 | 1013.5 |
| 20260510023940 | 11 | 191 | 0.0 | 0.0 | 0.00 | 0.00 | 0.00 | 99 | 1013.6 |
| 20260510023436 | 11 | 192 | 0.0 | 0.0 | 0.00 | 0.00 | 0.00 | 99 | 1013.6 |
| 20260510022933 | 11 | 191 | 0.0 | 0.0 | 0.00 | 0.00 | 0.00 | 99 | 1013.3 |
| 20260510022432 | 11 | 191 | 0.0 | 0.0 | 0.00 | 0.00 | 0.00 | 99 | 1013.1 |
| 20260510021932 | 11 | 191 | 0.0 | 0.0 | 0.00 | 0.00 | 0.00 | 99 | 1013.2 |
| 20260510021430 | 11 | 192 | 0.0 | 0.0 | 0.00 | 0.00 | 0.00 | 99 | 1013.2 |
| 20260510020926 | 11 | 191 | 0.0 | 0.0 | 0.00 | 0.00 | 0.00 | 98 | 1012.8 |
| 20260510020421 | 11 | 191 | 0.0 | 0.0 | 0.00 | 0.00 | 0.00 | 98 | 1012.7 |
| 20260510015917 | 11 | 191 | 0.0 | 0.0 | 0.00 | 0.00 | 0.00 | 98 | 1012.7 |
| 20260510015413 | 11 | 191 | 0.0 | 0.0 | 0.00 | 0.00 | 0.00 | 98 | 1012.6 |
| 20260510014908 | 11 | 191 | 0.0 | 0.0 | 0.00 | 0.00 | 0.00 | 98 | 1012.6 |
| 20260510014406 | 11 | 191 | 0.0 | 0.0 | 0.00 | 0.00 | 0.00 | 97 | 1012.6 |
| 20260510013902 | 12 | 192 | 0.0 | 0.0 | 0.00 | 0.00 | 0.00 | 97 | 1012.6 |
| 20260510013357 | 12 | 191 | 0.0 | 0.0 | 0.00 | 0.00 | 0.00 | 96 | 1012.5 |
| 20260510012852 | 12 | 191 | 0.0 | 0.0 | 0.00 | 0.00 | 0.00 | 96 | 1012.4 |
| 20260510012347 | 12 | 191 | 0.0 | 0.0 | 0.00 | 0.00 | 0.00 | 96 | 1012.4 |
| 20260510011842 | 12 | 191 | 0.0 | 0.0 | 0.00 | 0.00 | 0.00 | 95 | 1012.3 |
| 20260510011338 | 12 | 191 | 0.0 | 0.0 | 0.00 | 0.00 | 0.00 | 95 | 1012.3 |
| 20260510010834 | 12 | 191 | 0.0 | 0.0 | 0.00 | 0.00 | 0.00 | 95 | 1012.2 |
| 20260510010332 | 13 | 191 | 0.0 | 0.0 | 0.00 | 0.00 | 0.00 | 94 | 1012.1 |
| 20260510005828 | 13 | 191 | 0.0 | 0.0 | 0.00 | 0.00 | 0.00 | 94 | 1012.1 |
| 20260510005325 | 13 | 191 | 0.0 | 0.0 | 0.00 | 0.00 | 0.00 | 93 | 1012.1 |
| 20260510004822 | 13 | 191 | 0.0 | 0.0 | 0.00 | 0.00 | 0.00 | 92 | 1012.0 |
| 20260510004320 | 13 | 194 | 0.0 | 0.0 | 0.00 | 0.00 | 0.00 | 92 | 1011.9 |
| 20260510003817 | 13 | 194 | 0.0 | 0.0 | 0.00 | 0.00 | 0.00 | 91 | 1011.8 |
| 20260510003314 | 14 | 194 | 0.0 | 0.0 | 0.00 | 0.00 | 0.00 | 90 | 1011.8 |
| 20260510002813 | 14 | 194 | 0.0 | 0.0 | 0.00 | 0.00 | 0.00 | 90 | 1011.7 |
| 20260510002310 | 14 | 193 | 0.0 | 0.0 | 0.00 | 0.00 | 0.00 | 89 | 1011.5 |
| 20260510001806 | 15 | 193 | 0.0 | 0.0 | 0.00 | 0.00 | 0.00 | 88 | 1011.5 |
| 20260510001305 | 15 | 194 | 0.0 | 0.0 | 0.00 | 0.00 | 0.00 | 87 | 1011.5 |
| 20260510000800 | 15 | 194 | 0.0 | 0.0 | 0.00 | 0.00 | 0.00 | 86 | 1011.6 |
| 20260510000258 | 15 | 194 | 0.0 | 0.0 | 0.00 | 0.00 | 0.00 | 84 | 1011.5 |
| 20260509235755 | 16 | 194 | 0.0 | 0.0 | 0.00 | 0.00 | 0.00 | 83 | 1011.3 |
| 20260509235251 | 16 | 194 | 0.0 | 0.0 | 0.00 | 0.00 | 0.00 | 82 | 1011.3 |
| 20260509234747 | 16 | 194 | 0.0 | 1.6 | 0.00 | 0.00 | 0.00 | 79 | 1011.2 |
| 20260509234244 | 17 | 218 | 0.0 | 0.0 | 0.00 | 0.00 | 0.00 | 79 | 1011.4 |
| 20260509233743 | 17 | 156 | 0.0 | 0.0 | 0.00 | 0.00 | 0.00 | 78 | 1011.4 |
| 20260509233240 | 18 | 156 | 0.0 | 1.6 | 0.00 | 0.00 | 0.00 | 76 | 1011.4 |
| 20260509232736 | 19 | 219 | 1.6 | 1.6 | 0.00 | 0.00 | 0.00 | 69 | 1011.3 |
| 20260509232233 | 18 | 79 | 6.4 | 6.4 | 0.00 | 0.00 | 0.00 | 66 | 1011.3 |